TimeEDT,TemperatureF,Dew PointF,Humidity,Sea Level PressureIn,VisibilityMPH,Wind Direction,Wind SpeedMPH,Gust SpeedMPH,PrecipitationIn,Events,Conditions,WindDirDegrees,DateUTC
12:56 AM,75.9,73.0,91,30.14,10.0,SW,5.8,-,N/A,,Mostly Cloudy,220,2012-10-04 04:56:00
1:56 AM,75.0,72.0,90,30.14,10.0,SW,5.8,-,N/A,,Scattered Clouds,220,2012-10-04 05:56:00
2:56 AM,73.9,72.0,93,30.13,10.0,SW,4.6,-,N/A,,Scattered Clouds,230,2012-10-04 06:56:00
3:56 AM,73.0,71.1,93,30.12,9.0,SW,5.8,-,N/A,,Partly Cloudy,230,2012-10-04 07:56:00
4:56 AM,73.0,71.1,93,30.14,9.0,SW,5.8,-,N/A,,Partly Cloudy,230,2012-10-04 08:56:00
5:56 AM,72.0,70.0,93,30.15,6.0,WSW,5.8,-,N/A,,Partly Cloudy,240,2012-10-04 09:56:00
6:56 AM,72.0,70.0,93,30.16,6.0,WSW,5.8,-,N/A,,Mostly Cloudy,240,2012-10-04 10:56:00
7:56 AM,73.0,71.1,93,30.17,7.0,SW,4.6,-,N/A,,Mostly Cloudy,220,2012-10-04 11:56:00
8:56 AM,73.9,72.0,93,30.17,9.0,SW,5.8,-,N/A,,Mostly Cloudy,230,2012-10-04 12:56:00
9:56 AM,78.1,70.0,76,30.18,10.0,WSW,12.7,-,N/A,,Mostly Cloudy,250,2012-10-04 13:56:00
10:56 AM,82.0,63.0,52,30.18,10.0,West,12.7,16.1,N/A,,Mostly Cloudy,260,2012-10-04 14:56:00
11:56 AM,82.9,60.1,46,30.17,10.0,West,10.4,-,N/A,,Scattered Clouds,260,2012-10-04 15:56:00
12:56 PM,84.9,59.0,41,30.15,10.0,West,11.5,-,N/A,,Scattered Clouds,260,2012-10-04 16:56:00
1:56 PM,84.0,61.0,46,30.13,10.0,West,12.7,-,N/A,,Mostly Cloudy,260,2012-10-04 17:56:00
2:56 PM,82.9,63.0,51,30.11,10.0,WSW,17.3,20.7,N/A,,Scattered Clouds,250,2012-10-04 18:56:00
3:56 PM,82.0,64.0,54,30.10,10.0,SW,11.5,-,N/A,,Mostly Cloudy,230,2012-10-04 19:56:00
4:56 PM,79.0,64.9,62,30.10,10.0,WSW,10.4,-,N/A,,Mostly Cloudy,240,2012-10-04 20:56:00
5:56 PM,78.1,62.1,58,30.10,10.0,WSW,13.8,-,N/A,,Mostly Cloudy,240,2012-10-04 21:56:00
6:56 PM,75.0,61.0,62,30.11,10.0,WSW,9.2,-,N/A,,Mostly Cloudy,250,2012-10-04 22:56:00
7:56 PM,72.0,62.1,71,30.12,10.0,WSW,6.9,-,N/A,,Mostly Cloudy,250,2012-10-04 23:56:00
8:56 PM,70.0,62.1,76,30.12,10.0,WSW,5.8,-,N/A,,Scattered Clouds,250,2012-10-05 00:56:00
9:56 PM,71.1,63.0,75,30.13,10.0,WSW,6.9,-,N/A,,Scattered Clouds,240,2012-10-05 01:56:00
10:56 PM,69.1,64.0,84,30.14,10.0,WSW,6.9,-,N/A,,Partly Cloudy,240,2012-10-05 02:56:00
11:56 PM,68.0,64.0,87,30.14,10.0,West,4.6,-,N/A,,Scattered Clouds,260,2012-10-05 03:56:00